sat.trackr.live / text

‹ back to catalog

STARLINK-4667

NORAD 53707 · 2022-107H

PAYLOAD ACTIVE UNKNOWN

§ Identity

Operator
Country
US
Launch date
2022-09-05
Launch site
AFETR
Launch vehicle
Mass (kg)
RCS (m²)

Purposes: comms

External: N2YO · Heavens-Above · Gunter

§ Orbital elements

Epoch: 2026-05-24T23:52:24.685824Z

Period
95.44 min
Inclination
53.2161°
Eccentricity
0.0001212
Mean motion
15.08837918 rev/d
Perigee alt
538.9 km
Apogee alt
540.6 km
Semi-major
6,917.9 km
B*
2.6791e-5
RAAN
246.5870°
Arg perigee
88.3068°
Mean anomaly
271.8063°
Rev number
20,658

§ Raw data

STARLINK-46671 53707U 22107H   26144.99473016  .00000139  00000+0  26791-4 0  99912 53707  53.2161 246.5870 0001212  88.3068 271.8063 15.08837918206581

JSON: /api/v1/satellites/53707 · /tle

For live sub-satellite position, see the globe view (requires WebGL).

§ Visibility from observer

Set your observer location to see the next 7 days of passes ≥ 10°. The values pass through the URL so the page stays shareable.

No JS? Fill the form by hand. The geolocation button needs JavaScript.